Wind_Speed
7 7 6 3 2 2 3 4 5 6 7 7 7 9 5 6 6 3 6 6 8 6 5 5 4 4 3 2 2 3 5 6 8 9 10 12 12 13 14 14 15 16 18 19 20 21 21 23 23
7 7 7 4 4 5 4 4 4 4 4 4 6 7 7 9 7 7 6 5 6 7 8 7 5 5 6 6 6 7 8 9 11 11 12 12 13 15 16 17 18 18 19 19 19 20 21 22 23
8 8 8 4 7 7 4 5 6 5 5 4 5 5 7 5 6 6 5 6 7 8 6 4 4 4 4 5 6 7 9 10 10 12 11 13 14 16 17 18 19 19 21 22 23 23 22 23 24
7 8 9 9 9 9 8 5 4 4 5 5 4 5 6 6 6 7 7 8 8 8 7 6 8 7 7 7 8 9 10 11 12 12 14 16 17 17 18 18 19 20 21 23 23 24 26 27 27
5 7 10 9 10 10 9 7 6 5 6 5 5 6 6 7 7 9 9 10 10 10 9 10 10 9 9 10 11 11 11 12 13 14 15 17 18 17 18 19 20 21 22 23 24 25 26 28 29
2 5 6 8 10 10 10 9 9 8 6 7 7 7 8 8 8 9 10 10 11 12 12 13 12 11 11 10 10 11 12 12 13 14 15 16 17 18 18 19 19 20 21 22 23 23 25 27 28
4 6 8 10 11 11 12 11 10 9 9 9 9 13 10 8 10 10 11 12 13 14 14 14 14 14 13 13 11 11 11 12 14 15 16 17 17 16 17 17 18 19 21 22 22 24 24 25 27
5 7 9 8 8 10 11 12 11 12 12 10 11 10 13 15 14 13 13 14 15 15 16 16 16 17 17 16 16 16 15 14 14 15 15 16 17 17 19 20 21 22 22 21 21 23 24 24 27
5 6 8 9 7 8 9 10 11 13 15 15 14 15 16 16 16 15 15 16 17 17 18 17 17 18 18 17 19 20 19 18 18 18 19 19 20 21 21 22 24 25 26 26 26 26 25 25 26
5 7 8 9 10 10 11 11 12 15 16 17 16 17 20 19 17 16 18 19 19 19 19 19 18 19 19 19 21 21 21 20 20 21 22 22 22 22 23 24 26 28 29 29 29 28 28 28 28
8 9 10 10 11 10 11 12 15 15 17 14 18 20 19 18 18 19 20 22 21 20 20 21 20 20 21 22 22 22 22 21 22 23 23 24 26 27 29 29 30 31 31 32 31 32 32 31 31
11 11 11 12 12 13 13 15 16 17 12 14 15 16 17 17 19 21 23 24 24 23 21 22 23 24 24 23 23 24 24 24 24 24 25 27 29 31 32 32 33 33 34 33 32 31 31 33 35
14 11 14 14 15 16 17 18 21 16 13 17 17 17 19 20 21 24 25 26 24 23 24 24 24 27 27 26 26 26 26 26 25 26 27 28 29 31 32 33 34 35 36 34 32 33 34 36 37
18 17 16 14 16 17 18 20 25 19 21 21 22 22 21 22 24 25 25 26 26 26 26 25 26 27 28 28 28 28 28 28 27 27 28 29 30 31 33 35 36 36 34 31 29 31 33 36 39
17 22 19 19 14 18 20 27 21 18 22 26 25 28 27 26 27 26 27 27 26 28 28 28 28 29 29 29 30 30 30 30 29 29 30 30 31 31 33 35 37 36 31 30 31 33 35 38 41
24 24 24 17 18 23 20 37 25 21 23 25 29 30 31 30 30 29 28 29 28 28 27 29 30 31 31 31 32 33 32 31 31 31 31 31 32 33 35 37 38 35 32 32 33 34 36 39 42
27 21 25 28 23 22 26 35 30 31 29 30 31 32 32 31 32 30 27 30 31 30 30 31 32 32 32 33 33 33 34 32 31 32 31 31 33 35 37 38 41 40 37 36 36 36 38 40 42
21 24 26 32 25 28 34 38 34 34 37 34 34 36 34 34 33 31 28 28 29 30 32 34 33 32 32 34 34 34 34 32 32 32 32 34 36 38 38 40 42 42 40 39 39 40 41 42 44
33 34 34 32 36 34 40 42 42 38 39 39 36 32 29 30 29 30 26 27 24 27 30 33 33 33 33 34 35 34 35 34 34 33 34 36 36 38 38 42 43 43 42 40 41 42 44 45 46
33 32 34 34 35 37 43 51 49 45 38 34 33 34 32 29 30 29 25 18 19 24 30 34 34 35 35 36 35 36 35 35 34 34 35 35 35 37 41 44 45 43 43 43 43 46 48 48 49
29 31 32 36 37 44 42 48 32 35 37 39 31 28 26 22 25 27 23 16 18 22 27 31 34 36 37 37 36 36 36 36 35 35 35 35 35 39 43 46 47 45 44 44 45 46 47 49 49
29 29 32 34 34 24 25 30 38 39 34 29 17 15 21 21 26 28 24 19 20 25 29 32 36 37 37 36 36 36 37 38 36 36 36 36 37 41 45 47 47 45 44 44 46 47 49 50 51
29 29 32 32 31 33 28 24 34 31 33 17 11 20 21 26 31 27 26 24 23 31 35 34 37 39 36 33 35 39 40 39 38 37 37 37 39 41 45 49 47 44 44 44 46 47 50 52 54
28 26 30 31 31 15 32 30 14 21 20 18 28 19 22 28 31 27 31 26 24 33 42 40 36 37 34 34 36 40 41 40 39 40 40 41 41 42 47 51 47 45 46 46 48 49 51 54 58
32 25 10 9 8 17 26 24 38 38 37 31 29 23 26 28 31 30 29 30 27 32 45 44 36 33 37 39 43 41 41 41 41 42 43 43 43 46 50 51 46 45 46 48 51 53 55 57 59
24 21 11 14 15 28 32 19 31 27 21 32 33 28 26 28 22 28 29 33 32 36 48 47 40 33 38 43 40 39 40 41 42 42 43 44 46 48 51 50 46 45 48 50 53 56 58 60 60
23 23 30 23 31 19 27 41 40 37 30 27 25 18 15 17 28 27 27 31 34 39 52 49 41 37 38 37 37 39 41 42 42 42 44 45 47 49 53 48 46 47 50 53 56 59 61 62 61
29 27 9 13 7 19 39 50 41 32 25 18 20 19 18 26 32 29 31 30 36 46 58 49 40 38 36 36 37 38 40 41 41 42 45 45 47 50 52 47 47 48 51 54 58 61 63 64 61
37 34 24 22 22 10 20 19 4 6 32 36 28 26 27 30 28 35 35 42 48 58 59 46 42 39 38 36 35 36 39 40 42 44 45 46 47 50 47 46 47 50 53 57 62 63 63 62 60
36 40 38 26 14 34 27 58 15 17 24 49 37 31 27 32 45 42 43 50 61 60 55 48 45 40 40 37 35 35 37 40 42 44 45 46 47 48 45 46 48 50 56 60 61 62 62 60 60
Wind_Direction
196 200 205 205 278 250 206 194 153 168 175 191 191 191 230 212 226 231 292 219 218 208 207 201 190 192 192 200 235 269 294 299 291 277 265 268 267 267 268 274 278 277 278 281 280 273 273 271 268
224 227 224 251 240 247 241 209 172 181 182 188 202 219 236 233 242 250 272 248 225 223 220 212 211 220 224 227 238 250 267 281 274 275 277 280 281 280 277 278 278 279 276 272 275 278 276 275 275
243 236 241 237 241 252 245 220 195 185 186 189 208 219 219 229 240 243 249 246 240 235 249 268 269 269 261 260 267 273 275 271 264 259 264 272 279 282 282 282 283 286 286 286 286 283 278 279 281
244 240 242 240 246 261 259 242 234 221 202 195 211 227 226 239 253 257 261 260 256 257 262 279 284 285 294 294 292 289 282 276 269 266 265 270 273 273 275 274 278 282 282 282 284 285 285 282 277
240 242 242 256 259 267 260 251 240 244 236 231 234 244 242 250 248 249 259 264 262 261 258 257 264 267 274 276 281 281 279 275 275 275 276 278 280 282 282 282 282 281 280 279 279 279 280 279 280
237 239 251 258 266 268 267 262 248 252 249 255 274 280 276 266 258 255 259 268 272 266 264 266 270 278 285 290 292 289 283 279 275 275 275 275 276 275 275 276 279 280 281 283 282 280 277 276 277
269 265 264 272 276 275 272 265 261 256 261 263 281 283 289 271 277 280 280 283 281 271 270 271 277 291 294 296 304 303 295 285 278 274 274 275 277 278 282 287 288 290 292 292 292 288 287 281 273
275 275 278 280 286 281 277 269 269 266 265 275 280 285 296 289 285 287 287 288 286 281 276 282 289 300 299 298 314 319 311 296 285 278 273 277 282 287 292 295 297 297 295 290 288 289 289 283 283
303 276 284 287 292 287 281 275 271 276 278 280 282 286 290 283 276 281 288 293 292 288 286 291 295 298 296 300 311 314 312 303 291 286 285 286 289 294 299 304 306 305 304 301 298 294 287 284 277
326 299 296 298 296 295 290 280 274 275 279 282 286 288 284 279 275 282 289 291 290 288 286 282 288 294 296 301 304 306 308 302 293 286 282 284 289 294 297 300 303 305 306 303 299 294 291 288 283
325 315 314 309 303 300 295 288 283 285 290 294 286 283 282 276 272 280 285 288 283 283 283 281 280 289 294 295 298 301 302 297 291 286 284 285 287 290 296 300 302 305 307 304 301 298 294 291 285
306 304 307 305 303 301 296 294 293 290 306 286 282 281 282 280 280 282 284 285 282 282 281 277 273 278 287 293 295 295 296 299 295 292 288 285 286 290 293 297 301 303 307 306 299 292 288 284 283
305 302 299 294 296 291 290 293 292 300 289 282 282 281 281 283 287 288 285 285 286 278 273 273 273 273 280 287 291 291 290 292 292 288 284 284 285 288 294 298 303 309 311 307 300 292 288 285 281
291 292 295 285 289 289 286 282 287 309 285 279 285 282 281 283 286 289 293 284 279 274 272 269 271 273 274 277 282 288 288 288 289 285 284 285 288 292 297 302 308 312 312 305 294 284 280 278 278
279 288 282 288 278 288 295 283 299 292 282 288 286 284 285 288 292 297 296 294 280 275 272 270 270 272 273 275 278 282 285 287 287 287 285 287 292 296 302 305 310 313 309 297 287 283 281 279 277
285 284 282 280 283 294 290 295 307 303 289 290 288 283 286 285 288 293 294 293 287 279 274 268 267 270 274 275 276 279 283 286 286 288 291 295 298 301 302 304 311 314 303 293 288 285 281 279 277
281 274 276 282 287 288 288 295 305 306 300 291 291 285 282 285 280 289 286 283 283 277 271 268 266 267 269 272 274 277 280 284 288 291 294 295 297 299 302 308 311 311 304 298 295 291 288 286 281
273 277 277 281 285 287 289 294 297 302 299 296 295 292 285 285 281 279 276 282 285 281 275 271 271 272 272 272 275 277 281 286 289 293 297 299 301 303 306 309 307 306 303 300 299 297 295 292 289
274 272 274 281 287 284 291 291 296 298 296 300 302 291 283 284 271 266 271 281 282 284 284 280 277 273 271 272 273 278 282 288 292 295 297 299 301 304 306 305 305 303 300 301 300 299 296 294 291
265 265 273 283 287 289 291 290 294 298 296 299 304 298 292 280 263 261 269 268 289 293 290 285 281 276 274 273 276 280 284 287 290 293 295 298 300 302 304 304 305 305 303 303 301 298 297 295 295
255 262 275 280 287 290 291 291 297 296 296 304 304 299 277 269 263 250 258 261 299 308 297 289 280 275 273 274 277 279 283 285 288 290 293 295 299 303 304 305 307 306 303 302 300 298 296 298 298
259 275 275 278 283 278 288 289 287 293 294 297 308 299 280 257 279 251 253 263 300 316 312 297 288 279 275 276 280 283 283 284 287 289 293 298 300 301 303 304 304 302 302 303 302 301 302 302 301
257 272 277 277 275 279 280 274 284 285 282 291 295 296 272 274 278 260 263 260 289 316 321 312 294 284 279 280 283 284 283 284 287 289 292 294 291 293 298 302 305 306 306 306 305 304 304 304 303
265 271 275 279 281 262 277 247 288 280 283 282 293 291 271 269 266 269 270 258 281 315 319 318 304 284 275 280 287 286 283 284 287 288 289 288 290 297 303 307 308 308 309 308 307 306 305 304 303
263 263 287 266 249 267 284 272 267 279 281 281 294 279 273 259 267 268 269 253 279 304 319 320 306 284 275 279 287 283 280 281 282 284 287 291 295 299 302 308 308 308 309 309 308 306 306 305 303
260 238 216 274 282 289 288 259 283 288 286 292 284 284 266 260 265 270 268 257 273 300 314 318 307 288 281 283 282 277 276 276 279 284 288 292 295 298 302 306 308 311 310 307 306 306 307 306 304
254 236 258 257 277 287 270 273 283 287 285 288 288 273 260 256 291 273 265 286 279 299 312 315 304 292 287 284 278 274 274 276 281 286 288 290 294 299 304 309 309 309 307 308 308 310 310 308 305
245 258 215 214 271 270 281 289 285 284 282 264 295 279 272 281 281 283 267 277 288 300 311 311 304 294 287 281 276 273 275 277 282 284 287 290 295 300 306 306 307 307 307 309 311 312 311 308 306
247 239 235 245 245 266 281 275 268 240 290 289 294 293 282 283 283 291 278 289 291 301 307 306 302 293 286 281 276 274 274 277 279 282 286 291 296 301 304 303 305 307 310 313 312 311 309 306 304
249 249 247 232 238 247 258 272 279 282 269 290 285 287 277 279 297 289 283 287 295 303 306 302 297 289 286 281 276 273 273 275 278 282 287 292 298 302 301 304 308 311 314 314 311 310 309 306 303
Height
3186 3186 3187 3187 3191 3186 3184 3184 3183 3182 3182 3182 3181 3182 3183 3182 3184 3187 3181 3181 3182 3182 3182 3181 3181 3180 3180 3180 3180 3180 3180 3180 3180 3180 3180 3179 3179 3179 3178 3178 3178 3178 3178 3177 3177 3176 3175 3175 3175
3186 3186 3187 3187 3188 3186 3185 3183 3182 3182 3182 3181 3181 3182 3182 3181 3181 3181 3181 3180 3180 3181 3181 3181 3180 3179 3179 3179 3179 3178 3178 3177 3178 3177 3177 3177 3177 3176 3175 3176 3176 3176 3176 3175 3174 3174 3174 3173 3172
3185 3185 3187 3186 3185 3185 3184 3182 3182 3181 3181 3181 3181 3181 3180 3180 3180 3180 3179 3179 3179 3179 3178 3178 3177 3177 3177 3176 3176 3176 3175 3175 3175 3174 3174 3174 3173 3173 3173 3173 3172 3171 3172 3172 3171 3171 3171 3170 3169
3184 3185 3186 3184 3184 3182 3182 3181 3181 3180 3180 3180 3180 3180 3180 3179 3178 3178 3177 3177 3176 3176 3175 3176 3176 3175 3175 3174 3173 3172 3172 3171 3170 3170 3169 3168 3168 3168 3168 3167 3167 3167 3167 3167 3166 3166 3166 3166 3165
3183 3184 3184 3182 3181 3180 3180 3180 3179 3179 3179 3179 3179 3178 3178 3177 3176 3176 3175 3174 3174 3174 3173 3173 3173 3173 3172 3171 3170 3169 3168 3168 3167 3167 3166 3165 3165 3164 3164 3163 3163 3162 3161 3161 3160 3160 3160 3160 3159
3182 3183 3183 3182 3179 3178 3178 3178 3178 3177 3177 3177 3177 3176 3175 3174 3174 3174 3173 3172 3172 3171 3171 3171 3171 3169 3169 3168 3168 3167 3166 3165 3164 3163 3162 3161 3161 3160 3159 3158 3158 3158 3157 3156 3155 3153 3153 3152 3153
3182 3182 3181 3179 3178 3177 3176 3175 3176 3176 3176 3175 3175 3173 3173 3171 3171 3170 3170 3170 3169 3169 3168 3167 3167 3166 3166 3165 3165 3164 3162 3161 3160 3159 3159 3158 3158 3157 3156 3155 3155 3153 3152 3151 3150 3150 3149 3148 3147
3180 3180 3178 3177 3176 3175 3174 3173 3174 3173 3173 3173 3173 3171 3170 3169 3167 3167 3166 3166 3165 3164 3164 3163 3163 3162 3161 3160 3159 3158 3157 3156 3156 3155 3154 3153 3153 3152 3150 3149 3147 3145 3144 3143 3143 3142 3142 3141 3141
3179 3179 3176 3175 3174 3173 3172 3171 3171 3170 3169 3169 3169 3168 3167 3165 3164 3163 3162 3161 3161 3160 3160 3159 3158 3157 3156 3154 3153 3152 3151 3150 3149 3148 3148 3147 3146 3145 3143 3142 3140 3139 3137 3135 3134 3132 3132 3132 3133
3179 3178 3175 3173 3172 3170 3169 3169 3168 3168 3167 3166 3165 3164 3162 3160 3160 3159 3159 3157 3156 3155 3154 3154 3153 3151 3150 3149 3147 3146 3146 3145 3144 3143 3142 3141 3140 3139 3138 3137 3134 3132 3130 3128 3126 3126 3124 3124 3125
3177 3176 3174 3171 3169 3168 3166 3166 3165 3164 3162 3162 3161 3159 3157 3156 3156 3155 3154 3152 3151 3150 3149 3148 3147 3146 3145 3143 3142 3141 3141 3140 3139 3138 3137 3136 3135 3133 3131 3129 3128 3125 3123 3121 3118 3116 3115 3113 3113
3175 3173 3172 3170 3168 3166 3164 3162 3161 3160 3160 3158 3156 3155 3153 3152 3151 3150 3148 3147 3146 3145 3144 3142 3142 3141 3139 3138 3137 3137 3136 3134 3133 3132 3131 3130 3129 3127 3125 3123 3120 3119 3117 3115 3112 3110 3108 3108 3105
3172 3170 3169 3167 3165 3163 3162 3160 3157 3156 3156 3154 3152 3151 3150 3148 3147 3145 3143 3141 3140 3139 3137 3136 3136 3135 3134 3133 3132 3131 3130 3129 3128 3126 3125 3123 3122 3120 3117 3115 3113 3111 3108 3106 3104 3102 3100 3098 3097
3169 3166 3165 3164 3162 3160 3158 3157 3153 3154 3151 3149 3148 3146 3144 3143 3141 3139 3137 3135 3133 3131 3131 3130 3130 3129 3128 3127 3126 3125 3123 3122 3120 3119 3118 3116 3114 3113 3111 3108 3106 3105 3102 3099 3096 3094 3092 3090 3088
3164 3162 3160 3159 3158 3155 3153 3149 3149 3148 3145 3144 3142 3139 3137 3136 3133 3132 3130 3127 3126 3124 3123 3123 3123 3122 3121 3120 3119 3118 3116 3115 3113 3112 3110 3109 3108 3105 3103 3101 3099 3096 3093 3090 3088 3085 3083 3081 3078
3159 3157 3154 3152 3152 3150 3149 3138 3143 3143 3141 3138 3136 3133 3131 3129 3126 3125 3123 3120 3117 3116 3115 3114 3114 3114 3114 3113 3112 3111 3110 3109 3107 3104 3102 3100 3097 3096 3094 3091 3090 3087 3084 3081 3078 3075 3073 3070 3067
3153 3152 3148 3146 3145 3144 3142 3135 3136 3134 3133 3131 3129 3126 3124 3122 3119 3118 3115 3112 3109 3108 3106 3105 3105 3105 3105 3104 3104 3103 3102 3100 3098 3096 3094 3092 3090 3088 3085 3082 3079 3076 3074 3071 3067 3064 3061 3058 3057
3150 3146 3142 3140 3139 3136 3132 3128 3130 3129 3125 3123 3120 3118 3115 3113 3111 3109 3107 3105 3102 3100 3099 3097 3098 3097 3097 3096 3095 3094 3093 3092 3089 3087 3085 3082 3080 3077 3075 3073 3070 3066 3063 3059 3055 3051 3049 3046 3043
3142 3139 3136 3135 3131 3128 3124 3118 3119 3122 3117 3113 3112 3108 3105 3103 3102 3099 3099 3097 3095 3094 3092 3090 3089 3089 3088 3087 3086 3085 3084 3083 3082 3079 3077 3074 3072 3068 3067 3063 3060 3056 3054 3050 3045 3042 3038 3036 3033
3135 3133 3129 3128 3125 3119 3116 3106 3108 3110 3110 3107 3104 3101 3096 3093 3092 3092 3092 3091 3090 3088 3086 3084 3082 3080 3079 3078 3077 3077 3076 3075 3073 3070 3067 3066 3064 3061 3058 3054 3050 3046 3042 3039 3035 3032 3028 3025 3022
3127 3127 3125 3122 3119 3112 3105 3092 3096 3097 3097 3099 3096 3090 3087 3086 3085 3084 3084 3084 3083 3082 3079 3077 3074 3072 3070 3069 3069 3068 3067 3066 3065 3062 3060 3058 3055 3051 3048 3043 3040 3038 3033 3030 3027 3024 3020 3016 3014
3122 3120 3119 3116 3114 3108 3105 3073 3086 3087 3084 3086 3087 3084 3081 3080 3078 3077 3077 3077 3075 3073 3071 3069 3065 3063 3062 3061 3060 3059 3057 3056 3054 3052 3051 3048 3046 3043 3038 3035 3033 3029 3025 3022 3019 3015 3010 3007 3003
3114 3114 3112 3109 3106 3098 3098 3088 3069 3077 3074 3077 3078 3077 3075 3073 3070 3070 3070 3068 3067 3065 3063 3061 3057 3054 3053 3052 3051 3049 3047 3046 3043 3043 3042 3041 3038 3034 3030 3028 3025 3022 3018 3013 3009 3004 2999 2995 2990
3107 3108 3106 3102 3101 3087 3084 3080 3063 3068 3068 3069 3070 3069 3067 3065 3063 3063 3062 3061 3060 3059 3056 3054 3050 3046 3045 3043 3041 3039 3037 3034 3033 3030 3029 3027 3026 3024 3022 3019 3014 3009 3005 3001 2996 2991 2986 2980 2975
3103 3103 3103 3094 3091 3069 3074 3065 3051 3059 3062 3061 3060 3061 3058 3056 3056 3055 3054 3053 3051 3050 3048 3044 3040 3037 3036 3034 3032 3029 3026 3024 3022 3019 3018 3017 3016 3013 3011 3007 3003 2998 2993 2989 2983 2977 2971 2965 2958
3093 3096 3098 3087 3080 3057 3065 3039 3041 3048 3051 3051 3048 3049 3048 3049 3048 3047 3047 3045 3043 3041 3038 3034 3031 3028 3026 3024 3020 3018 3015 3013 3012 3010 3009 3007 3005 3004 3000 2995 2990 2987 2982 2976 2970 2962 2956 2949 2942
3085 3087 3087 3086 3077 3064 3040 3030 3033 3039 3039 3039 3039 3040 3040 3042 3042 3041 3039 3038 3036 3033 3029 3025 3021 3017 3015 3013 3010 3006 3004 3003 3002 3001 3000 2997 2994 2991 2988 2984 2980 2974 2968 2962 2954 2946 2939 2930 2922
3080 3077 3079 3082 3077 3061 3012 3018 3021 3027 3025 3031 3033 3034 3037 3036 3034 3033 3031 3029 3026 3022 3018 3014 3010 3007 3004 3001 2998 2996 2995 2994 2994 2992 2989 2986 2983 2980 2977 2972 2968 2962 2955 2948 2939 2931 2922 2913 2905
3069 3066 3069 3070 3066 3060 3041 3000 3011 3018 3020 3024 3026 3027 3027 3027 3026 3025 3022 3019 3016 3012 3008 3004 2999 2995 2992 2990 2987 2986 2985 2985 2984 2981 2978 2976 2974 2969 2966 2961 2956 2950 2942 2934 2925 2916 2907 2898 2891
3054 3054 3056 3055 3051 3046 3047 2986 3003 3007 3011 3013 3014 3015 3015 3016 3015 3011 3009 3006 3003 2999 2994 2990 2986 2982 2980 2979 2977 2976 2975 2975 2974 2972 2970 2966 2963 2960 2955 2951 2945 2938 2929 2920 2910 2901 2891 2882 2874